| time (UTC) | temp C | wind direction | speed KPH | gust KPH | rain 1hr cm | rain 24hr cm | rain mn cm | humidity % | barometer mb |
| 20260507144522 | 10 | 262 | 11.3 | 20.9 | 0.00 | 0.28 | 0.00 | 77 | 1021.4 |
| 20260507144010 | 10 | 247 | 11.3 | 20.9 | 0.00 | 0.28 | 0.00 | 77 | 1021.5 |
| 20260507143508 | 10 | 252 | 11.3 | 24.1 | 0.00 | 0.28 | 0.00 | 77 | 1021.5 |
| 20260507143010 | 10 | 256 | 12.9 | 24.1 | 0.00 | 0.28 | 0.00 | 77 | 1021.5 |
| 20260507142003 | 10 | 239 | 8.0 | 19.3 | 0.00 | 0.28 | 0.00 | 78 | 1021.5 |
| 20260507141515 | 10 | 245 | 6.4 | 20.9 | 0.00 | 0.28 | 0.00 | 77 | 1021.4 |
| 20260507141006 | 10 | 249 | 9.7 | 22.5 | 0.00 | 0.28 | 0.00 | 77 | 1021.4 |
| 20260507140025 | 10 | 251 | 14.5 | 19.3 | 0.00 | 0.28 | 0.00 | 77 | 1021.7 |
| 20260507135506 | 10 | 243 | 12.9 | 19.3 | 0.00 | 0.28 | 0.28 | 78 | 1021.7 |
| 20260507135008 | 10 | 260 | 9.7 | 22.5 | 0.00 | 0.28 | 0.28 | 77 | 1021.7 |
| 20260507134505 | 10 | 239 | 12.9 | 22.5 | 0.00 | 0.28 | 0.28 | 77 | 1021.7 |
| 20260507134004 | 10 | 233 | 12.9 | 20.9 | 0.00 | 0.28 | 0.28 | 77 | 1021.7 |
| 20260507133503 | 9 | 287 | 6.4 | 24.1 | 0.00 | 0.28 | 0.28 | 77 | 1021.9 |
| 20260507133007 | 9 | 218 | 9.7 | 24.1 | 0.00 | 0.28 | 0.28 | 77 | 1022.0 |
| 20260507132506 | 9 | 246 | 6.4 | 22.5 | 0.00 | 0.28 | 0.28 | 77 | 1022.1 |
| 20260507132005 | 9 | 243 | 11.3 | 17.7 | 0.00 | 0.28 | 0.28 | 77 | 1022.1 |
| 20260507131512 | 9 | 252 | 4.8 | 14.5 | 0.00 | 0.28 | 0.28 | 77 | 1022.3 |
| 20260507131009 | 9 | 267 | 6.4 | 16.1 | 0.00 | 0.28 | 0.28 | 77 | 1022.3 |
| 20260507130505 | 9 | 245 | 9.7 | 25.7 | 0.00 | 0.28 | 0.28 | 77 | 1022.3 |
| 20260507125510 | 9 | 261 | 9.7 | 24.1 | 0.00 | 0.28 | 0.28 | 76 | 1022.4 |
| 20260507125006 | 9 | 246 | 12.9 | 24.1 | 0.00 | 0.28 | 0.28 | 76 | 1022.4 |
| 20260507124526 | 9 | 251 | 12.9 | 24.1 | 0.00 | 0.28 | 0.28 | 76 | 1022.4 |
| 20260507124009 | 9 | 258 | 8.0 | 27.4 | 0.00 | 0.28 | 0.28 | 76 | 1022.5 |
| 20260507123024 | 9 | 259 | 14.5 | 27.4 | 0.00 | 0.28 | 0.28 | 76 | 1022.6 |
| 20260507122507 | 9 | 257 | 12.9 | 25.7 | 0.00 | 0.28 | 0.28 | 76 | 1022.7 |
| 20260507122006 | 9 | 256 | 16.1 | 25.7 | 0.00 | 0.28 | 0.28 | 76 | 1022.8 |
| 20260507121506 | 9 | 268 | 9.7 | 19.3 | 0.00 | 0.28 | 0.28 | 76 | 1022.7 |
| 20260507121004 | 8 | 262 | 9.7 | 19.3 | 0.00 | 0.28 | 0.28 | 76 | 1022.8 |
| 20260507120503 | 8 | 274 | 11.3 | 19.3 | 0.00 | 0.28 | 0.28 | 76 | 1022.9 |
| 20260507115506 | 8 | 245 | 11.3 | 22.5 | 0.00 | 0.28 | 0.28 | 76 | 1022.9 |
| 20260507115009 | 8 | 272 | 11.3 | 17.7 | 0.00 | 0.28 | 0.28 | 76 | 1023.0 |
| 20260507114511 | 8 | 272 | 11.3 | 16.1 | 0.00 | 0.28 | 0.28 | 76 | 1023.0 |
| 20260507114008 | 8 | 266 | 4.8 | 14.5 | 0.00 | 0.28 | 0.28 | 76 | 1023.0 |
| 20260507113506 | 8 | 264 | 8.0 | 20.9 | 0.00 | 0.28 | 0.28 | 75 | 1022.9 |
| 20260507113004 | 8 | 277 | 9.7 | 20.9 | 0.00 | 0.28 | 0.28 | 75 | 1022.9 |
| 20260507112504 | 8 | 269 | 12.9 | 19.3 | 0.00 | 0.28 | 0.28 | 75 | 1023.0 |
| 20260507112003 | 8 | 267 | 12.9 | 19.3 | 0.00 | 0.28 | 0.28 | 75 | 1023.0 |
| 20260507111507 | 8 | 273 | 6.4 | 19.3 | 0.00 | 0.30 | 0.28 | 75 | 1023.0 |
| 20260507111004 | 8 | 250 | 8.0 | 19.3 | 0.00 | 0.30 | 0.28 | 75 | 1022.9 |
| 20260507110501 | 8 | 238 | 9.7 | 19.3 | 0.00 | 0.30 | 0.28 | 75 | 1023.1 |
| 20260507110011 | 8 | 270 | 8.0 | 19.3 | 0.00 | 0.30 | 0.28 | 75 | 1023.2 |
| 20260507105501 | 8 | 272 | 11.3 | 17.7 | 0.00 | 0.33 | 0.28 | 75 | 1023.1 |
| 20260507105002 | 8 | 243 | 9.7 | 16.1 | 0.00 | 0.36 | 0.28 | 75 | 1023.2 |
| 20260507104504 | 8 | 278 | 6.4 | 14.5 | 0.00 | 0.36 | 0.28 | 74 | 1023.2 |
| 20260507104001 | 8 | 245 | 9.7 | 17.7 | 0.00 | 0.38 | 0.28 | 75 | 1023.3 |
| 20260507103503 | 8 | 250 | 8.0 | 17.7 | 0.00 | 0.41 | 0.28 | 75 | 1023.6 |
| 20260507103008 | 8 | 239 | 8.0 | 17.7 | 0.00 | 0.41 | 0.28 | 75 | 1023.6 |
| 20260507102502 | 8 | 268 | 4.8 | 14.5 | 0.00 | 0.43 | 0.28 | 75 | 1023.5 |
| 20260507102006 | 8 | 270 | 4.8 | 16.1 | 0.00 | 0.46 | 0.28 | 75 | 1023.4 |
| 20260507101508 | 8 | 259 | 8.0 | 16.1 | 0.00 | 0.46 | 0.28 | 74 | 1023.5 |
| 20260507101005 | 8 | 246 | 6.4 | 22.5 | 0.00 | 0.56 | 0.28 | 74 | 1023.5 |
| 20260507100504 | 8 | 261 | 11.3 | 22.5 | 0.00 | 0.76 | 0.28 | 74 | 1023.5 |
| 20260507100005 | 8 | 288 | 12.9 | 20.9 | 0.00 | 0.86 | 0.28 | 73 | 1023.5 |
| 20260507095505 | 8 | 250 | 11.3 | 22.5 | 0.00 | 0.86 | 0.28 | 73 | 1023.4 |
| 20260507095008 | 8 | 262 | 14.5 | 22.5 | 0.00 | 0.86 | 0.28 | 73 | 1023.5 |
| 20260507094514 | 8 | 240 | 9.7 | 24.1 | 0.00 | 0.86 | 0.28 | 73 | 1023.5 |
| 20260507094003 | 8 | 268 | 14.5 | 22.5 | 0.00 | 0.86 | 0.28 | 72 | 1023.5 |
| 20260507093504 | 8 | 250 | 12.9 | 22.5 | 0.00 | 0.86 | 0.28 | 72 | 1023.5 |
| 20260507093004 | 8 | 251 | 14.5 | 22.5 | 0.00 | 0.86 | 0.28 | 72 | 1023.5 |
| 20260507092502 | 8 | 243 | 9.7 | 25.7 | 0.00 | 0.86 | 0.28 | 72 | 1023.4 |
| 20260507092001 | 8 | 264 | 14.5 | 25.7 | 0.00 | 0.86 | 0.28 | 72 | 1023.4 |
| 20260507091513 | 8 | 293 | 6.4 | 16.1 | 0.00 | 0.89 | 0.28 | 72 | 1023.4 |
| 20260507091004 | 8 | 248 | 4.8 | 17.7 | 0.00 | 0.91 | 0.28 | 71 | 1023.2 |
| 20260507090503 | 8 | 269 | 11.3 | 19.3 | 0.00 | 0.91 | 0.28 | 70 | 1023.0 |
| 20260507090008 | 8 | 244 | 11.3 | 19.3 | 0.00 | 0.91 | 0.28 | 70 | 1023.1 |
| 20260507085503 | 8 | 289 | 8.0 | 17.7 | 0.00 | 0.91 | 0.28 | 70 | 1023.2 |
| 20260507085003 | 8 | 267 | 11.3 | 17.7 | 0.00 | 0.91 | 0.28 | 70 | 1023.0 |
| 20260507084506 | 9 | 262 | 6.4 | 14.5 | 0.00 | 0.91 | 0.28 | 70 | 1022.9 |
| 20260507084003 | 9 | 251 | 6.4 | 14.5 | 0.00 | 0.91 | 0.28 | 69 | 1022.9 |
| 20260507083505 | 9 | 254 | 9.7 | 16.1 | 0.00 | 0.91 | 0.28 | 69 | 1022.8 |
| 20260507083006 | 9 | 235 | 4.8 | 19.3 | 0.00 | 0.91 | 0.28 | 68 | 1022.7 |
| 20260507082508 | 9 | 243 | 9.7 | 19.3 | 0.00 | 0.91 | 0.28 | 68 | 1022.7 |
| 20260507082005 | 9 | 255 | 6.4 | 17.7 | 0.00 | 0.91 | 0.28 | 68 | 1022.7 |
| 20260507081505 | 9 | 226 | 9.7 | 20.9 | 0.00 | 0.91 | 0.28 | 68 | 1022.6 |
| 20260507081004 | 9 | 246 | 8.0 | 20.9 | 0.00 | 0.91 | 0.28 | 68 | 1022.7 |
| 20260507080503 | 9 | 223 | 11.3 | 25.7 | 0.00 | 0.91 | 0.28 | 67 | 1022.6 |
| 20260507080005 | 9 | 218 | 12.9 | 29.0 | 0.00 | 0.91 | 0.28 | 67 | 1022.6 |
| 20260507075505 | 9 | 241 | 12.9 | 30.6 | 0.00 | 0.91 | 0.28 | 67 | 1022.7 |
| 20260507075007 | 9 | 233 | 17.7 | 30.6 | 0.00 | 0.91 | 0.28 | 68 | 1022.8 |
| 20260507074508 | 9 | 268 | 6.4 | 17.7 | 0.00 | 0.91 | 0.28 | 69 | 1022.6 |
| 20260507074005 | 9 | 229 | 8.0 | 17.7 | 0.00 | 0.91 | 0.28 | 69 | 1022.6 |
| 20260507073502 | 9 | 254 | 6.4 | 16.1 | 0.00 | 0.91 | 0.28 | 69 | 1022.7 |
| 20260507073013 | 9 | 228 | 9.7 | 14.5 | 0.00 | 0.91 | 0.28 | 69 | 1022.6 |
| 20260507072505 | 9 | 237 | 6.4 | 14.5 | 0.00 | 0.91 | 0.28 | 70 | 1022.6 |
| 20260507072004 | 9 | 245 | 6.4 | 14.5 | 0.00 | 0.91 | 0.28 | 71 | 1022.6 |
| 20260507071509 | 8 | 241 | 6.4 | 11.3 | 0.00 | 0.91 | 0.28 | 72 | 1022.6 |
| 20260507071004 | 8 | 267 | 3.2 | 12.9 | 0.00 | 0.91 | 0.28 | 72 | 1022.6 |
| 20260507070508 | 8 | 262 | 6.4 | 12.9 | 0.00 | 0.91 | 0.28 | 72 | 1022.6 |
| 20260507065503 | 8 | 260 | 3.2 | 9.7 | 0.00 | 0.91 | 0.28 | 72 | 1022.5 |
| 20260507065001 | 8 | 260 | 4.8 | 17.7 | 0.00 | 0.91 | 0.28 | 71 | 1022.6 |
| 20260507064510 | 8 | 214 | 8.0 | 17.7 | 0.00 | 0.91 | 0.28 | 70 | 1022.6 |
| 20260507064004 | 8 | 204 | 6.4 | 17.7 | 0.00 | 0.91 | 0.28 | 70 | 1022.6 |
| 20260507063505 | 8 | 220 | 9.7 | 19.3 | 0.00 | 0.91 | 0.28 | 70 | 1022.6 |
| 20260507063006 | 8 | 245 | 12.9 | 20.9 | 0.00 | 0.91 | 0.28 | 69 | 1022.7 |
| 20260507062508 | 8 | 189 | 11.3 | 22.5 | 0.00 | 0.91 | 0.28 | 70 | 1022.7 |
| 20260507062006 | 9 | 247 | 16.1 | 22.5 | 0.00 | 0.91 | 0.28 | 69 | 1022.8 |
| 20260507061526 | 9 | 237 | 12.9 | 22.5 | 0.00 | 0.91 | 0.28 | 69 | 1022.8 |
| 20260507061008 | 8 | 222 | 12.9 | 22.5 | 0.00 | 0.91 | 0.28 | 70 | 1022.7 |
| 20260507060504 | 8 | 217 | 8.0 | 20.9 | 0.00 | 0.91 | 0.28 | 71 | 1022.7 |
| 20260507060021 | 8 | 212 | 11.3 | 22.5 | 0.00 | 0.91 | 0.28 | 71 | 1022.7 |
| 20260507055507 | 8 | 226 | 11.3 | 24.1 | 0.00 | 0.91 | 0.28 | 72 | 1022.7 |
| 20260507055004 | 8 | 180 | 16.1 | 27.4 | 0.00 | 0.91 | 0.28 | 72 | 1022.7 |
| 20260507054514 | 8 | 216 | 17.7 | 38.6 | 0.00 | 0.91 | 0.28 | 73 | 1022.8 |
| 20260507054004 | 8 | 208 | 24.1 | 38.6 | 0.00 | 0.91 | 0.28 | 70 | 1022.8 |
| 20260507053504 | 9 | 213 | 16.1 | 29.0 | 0.00 | 0.91 | 0.28 | 69 | 1022.7 |
| 20260507053006 | 9 | 243 | 12.9 | 27.4 | 0.00 | 0.91 | 0.28 | 69 | 1022.5 |
| 20260507052504 | 9 | 229 | 12.9 | 24.1 | 0.00 | 0.91 | 0.28 | 69 | 1022.4 |
| 20260507052003 | 9 | 220 | 11.3 | 25.7 | 0.00 | 0.91 | 0.28 | 69 | 1022.4 |
| 20260507051508 | 9 | 227 | 12.9 | 29.0 | 0.00 | 0.91 | 0.28 | 68 | 1022.3 |
| 20260507051007 | 9 | 202 | 19.3 | 29.0 | 0.00 | 0.91 | 0.28 | 68 | 1022.4 |
| 20260507050506 | 9 | 185 | 16.1 | 25.7 | 0.00 | 0.91 | 0.28 | 69 | 1022.4 |
| 20260507050011 | 9 | 219 | 9.7 | 25.7 | 0.00 | 0.91 | 0.28 | 69 | 1022.5 |
| 20260507045508 | 9 | 256 | 17.7 | 29.0 | 0.00 | 0.91 | 0.28 | 69 | 1022.5 |
| 20260507045006 | 9 | 243 | 17.7 | 33.8 | 0.00 | 0.91 | 0.28 | 69 | 1022.4 |
| 20260507044011 | 8 | 216 | 17.7 | 35.4 | 0.00 | 0.91 | 0.28 | 68 | 1022.4 |
| 20260507043507 | 8 | 237 | 17.7 | 35.4 | 0.00 | 0.91 | 0.28 | 67 | 1022.5 |
| 20260507043024 | 9 | 233 | 19.3 | 37.0 | 0.00 | 0.91 | 0.28 | 68 | 1022.5 |
| 20260507042512 | 9 | 223 | 20.9 | 37.0 | 0.00 | 0.91 | 0.28 | 69 | 1022.4 |
| 20260507042008 | 9 | 218 | 14.5 | 27.4 | 0.00 | 0.91 | 0.28 | 71 | 1022.5 |
| 20260507041507 | 8 | 231 | 16.1 | 27.4 | 0.00 | 0.91 | 0.28 | 71 | 1022.5 |
| 20260507041003 | 8 | 253 | 17.7 | 29.0 | 0.00 | 0.91 | 0.28 | 70 | 1022.5 |
| 20260507040504 | 8 | 195 | 20.9 | 35.4 | 0.00 | 0.91 | 0.28 | 70 | 1022.6 |
| 20260507040011 | 8 | 222 | 16.1 | 35.4 | 0.00 | 0.91 | 0.28 | 69 | 1022.5 |
| 20260507035507 | 8 | 210 | 17.7 | 32.2 | 0.00 | 0.91 | 0.28 | 69 | 1022.4 |
| 20260507035007 | 8 | 197 | 20.9 | 41.8 | 0.00 | 0.91 | 0.28 | 69 | 1022.4 |
| 20260507034514 | 8 | 230 | 27.4 | 41.8 | 0.00 | 0.91 | 0.28 | 68 | 1022.4 |
| 20260507034004 | 8 | 241 | 17.7 | 30.6 | 0.00 | 0.91 | 0.28 | 69 | 1022.4 |
| 20260507033507 | 8 | 226 | 22.5 | 35.4 | 0.00 | 0.91 | 0.28 | 68 | 1022.4 |
| 20260507033015 | 8 | 220 | 20.9 | 35.4 | 0.00 | 0.91 | 0.28 | 69 | 1022.3 |
| 20260507032504 | 8 | 191 | 19.3 | 33.8 | 0.00 | 0.91 | 0.28 | 71 | 1022.1 |
| 20260507032011 | 8 | 201 | 19.3 | 35.4 | 0.00 | 0.91 | 0.28 | 71 | 1022.3 |
| 20260507031011 | 8 | 204 | 24.1 | 38.6 | 0.00 | 0.91 | 0.28 | 73 | 1022.3 |
| 20260507030013 | 7 | 189 | 12.9 | 29.0 | 0.00 | 0.89 | 0.28 | 79 | 1022.4 |
| 20260507025504 | 7 | 202 | 14.5 | 29.0 | 0.00 | 0.89 | 0.28 | 79 | 1022.5 |
| 20260507025004 | 7 | 172 | 19.3 | 37.0 | 0.00 | 0.89 | 0.28 | 77 | 1022.6 |
| 20260507024514 | 7 | 191 | 19.3 | 37.0 | 0.00 | 0.89 | 0.28 | 75 | 1022.5 |
| 20260507024006 | 7 | 220 | 25.7 | 41.8 | 0.00 | 0.89 | 0.28 | 73 | 1022.6 |
| 20260507023505 | 8 | 219 | 27.4 | 41.8 | 0.00 | 0.89 | 0.28 | 69 | 1022.6 |
| 20260507023003 | 8 | 219 | 25.7 | 38.6 | 0.00 | 0.89 | 0.28 | 69 | 1022.6 |
| 20260507022504 | 8 | 185 | 17.7 | 35.4 | 0.00 | 0.89 | 0.28 | 72 | 1022.6 |
| 20260507022004 | 8 | 233 | 20.9 | 32.2 | 0.00 | 0.89 | 0.28 | 71 | 1022.6 |
| 20260507021504 | 8 | 238 | 20.9 | 32.2 | 0.00 | 0.89 | 0.28 | 69 | 1022.7 |
| 20260507021005 | 8 | 211 | 22.5 | 33.8 | 0.00 | 0.89 | 0.28 | 70 | 1022.7 |
| 20260507020504 | 8 | 204 | 20.9 | 33.8 | 0.00 | 0.89 | 0.28 | 71 | 1022.7 |
| 20260507020005 | 7 | 246 | 20.9 | 35.4 | 0.00 | 0.89 | 0.28 | 71 | 1022.7 |
| 20260507015504 | 7 | 201 | 20.9 | 35.4 | 0.00 | 0.89 | 0.28 | 71 | 1022.6 |
| 20260507015007 | 7 | 242 | 19.3 | 29.0 | 0.00 | 0.89 | 0.28 | 73 | 1022.7 |
| 20260507014504 | 7 | 231 | 17.7 | 29.0 | 0.00 | 0.89 | 0.28 | 74 | 1022.8 |
| 20260507014003 | 7 | 221 | 17.7 | 29.0 | 0.00 | 0.89 | 0.28 | 76 | 1022.8 |
| 20260507013504 | 7 | 204 | 17.7 | 29.0 | 0.00 | 0.89 | 0.28 | 78 | 1022.8 |
| 20260507013014 | 7 | 210 | 9.7 | 20.9 | 0.00 | 0.89 | 0.28 | 79 | 1022.9 |
| 20260507012511 | 6 | 224 | 14.5 | 20.9 | 0.00 | 0.89 | 0.28 | 80 | 1022.9 |
| 20260507012003 | 6 | 229 | 12.9 | 17.7 | 0.03 | 0.89 | 0.28 | 81 | 1022.7 |
| 20260507011504 | 6 | 231 | 6.4 | 16.1 | 0.03 | 0.89 | 0.28 | 82 | 1022.9 |
| 20260507011007 | 6 | 185 | 8.0 | 17.7 | 0.03 | 0.89 | 0.28 | 81 | 1022.9 |
| 20260507010504 | 6 | 226 | 11.3 | 20.9 | 0.03 | 0.89 | 0.28 | 81 | 1022.9 |
| 20260507010004 | 6 | 193 | 14.5 | 20.9 | 0.03 | 0.89 | 0.28 | 81 | 1023.0 |
| 20260507005508 | 5 | 195 | 11.3 | 16.1 | 0.03 | 0.89 | 0.28 | 81 | 1022.9 |
| 20260507005004 | 5 | 202 | 9.7 | 14.5 | 0.03 | 0.89 | 0.28 | 81 | 1022.8 |
| 20260507004508 | 5 | 194 | 6.4 | 12.9 | 0.03 | 0.89 | 0.28 | 81 | 1022.9 |
| 20260507004004 | 5 | 232 | 4.8 | 12.9 | 0.03 | 0.89 | 0.28 | 81 | 1022.7 |
| 20260507003508 | 5 | 212 | 6.4 | 12.9 | 0.03 | 0.89 | 0.28 | 81 | 1022.7 |
| 20260507003008 | 5 | 212 | 4.8 | 16.1 | 0.03 | 0.86 | 0.25 | 80 | 1022.8 |
| 20260507002503 | 5 | 220 | 6.4 | 19.3 | 0.03 | 0.86 | 0.25 | 80 | 1022.8 |
| 20260507002009 | 5 | 205 | 9.7 | 19.3 | 0.00 | 0.84 | 0.23 | 80 | 1022.8 |
| 20260507001510 | 5 | 214 | 9.7 | 29.0 | 0.05 | 0.84 | 0.23 | 80 | 1022.8 |
| 20260507001009 | 5 | 193 | 11.3 | 29.0 | 0.05 | 0.84 | 0.23 | 79 | 1022.6 |
| 20260507000503 | 5 | 238 | 14.5 | 24.1 | 0.05 | 0.84 | 0.23 | 80 | 1022.6 |
| 20260507000004 | 5 | 233 | 11.3 | 19.3 | 0.05 | 0.84 | 0.23 | 81 | 1022.6 |
| 20260506235504 | 5 | 235 | 6.4 | 11.3 | 0.05 | 0.84 | 0.23 | 81 | 1022.4 |
| 20260506235006 | 5 | 208 | 6.4 | 12.9 | 0.05 | 0.84 | 0.23 | 81 | 1022.5 |
| 20260506234506 | 4 | 204 | 4.8 | 19.3 | 0.05 | 0.84 | 0.23 | 81 | 1022.5 |
| 20260506234006 | 4 | 189 | 8.0 | 20.9 | 0.05 | 0.84 | 0.23 | 81 | 1022.5 |
| 20260506233505 | 4 | 227 | 9.7 | 25.7 | 0.08 | 0.84 | 0.23 | 81 | 1022.5 |
| 20260506233009 | 4 | 191 | 11.3 | 29.0 | 0.05 | 0.84 | 0.20 | 80 | 1022.6 |
| 20260506232506 | 4 | 233 | 16.1 | 49.9 | 0.05 | 0.84 | 0.20 | 79 | 1022.5 |
| 20260506232004 | 4 | 213 | 22.5 | 49.9 | 0.05 | 0.84 | 0.20 | 78 | 1022.6 |
| 20260506231519 | 5 | 251 | 20.9 | 30.6 | 0.00 | 0.79 | 0.18 | 80 | 1022.6 |
| 20260506231005 | 5 | 245 | 12.9 | 22.5 | 0.00 | 0.79 | 0.18 | 81 | 1022.3 |
| 20260506230508 | 5 | 244 | 8.0 | 20.9 | 0.00 | 0.79 | 0.18 | 82 | 1022.0 |
| 20260506230020 | 4 | 245 | 8.0 | 20.9 | 0.03 | 0.79 | 0.18 | 82 | 1022.0 |
| 20260506225507 | 4 | 260 | 8.0 | 20.9 | 0.08 | 0.79 | 0.18 | 82 | 1021.9 |
| 20260506225008 | 3 | 255 | 9.7 | 20.9 | 0.10 | 0.79 | 0.18 | 82 | 1021.7 |
| 20260506224512 | 3 | 258 | 8.0 | 30.6 | 0.13 | 0.79 | 0.18 | 81 | 1021.6 |
| 20260506224006 | 3 | 238 | 16.1 | 32.2 | 0.13 | 0.79 | 0.18 | 81 | 1021.6 |
| 20260506223504 | 3 | 216 | 16.1 | 32.2 | 0.10 | 0.76 | 0.15 | 81 | 1021.8 |
| 20260506223006 | 3 | 208 | 20.9 | 32.2 | 0.10 | 0.76 | 0.15 | 82 | 1022.0 |
| 20260506222509 | 3 | 250 | 11.3 | 20.9 | 0.10 | 0.76 | 0.15 | 82 | 1022.0 |
| 20260506222006 | 3 | 236 | 6.4 | 17.7 | 0.10 | 0.76 | 0.15 | 82 | 1021.9 |
| 20260506221507 | 3 | 233 | 9.7 | 27.4 | 0.10 | 0.76 | 0.15 | 82 | 1021.8 |
| 20260506221008 | 3 | 209 | 11.3 | 32.2 | 0.10 | 0.76 | 0.15 | 81 | 1021.7 |
| 20260506220508 | 3 | 185 | 17.7 | 35.4 | 0.10 | 0.76 | 0.15 | 81 | 1021.5 |
| 20260506220005 | 3 | 221 | 22.5 | 35.4 | 0.08 | 0.74 | 0.13 | 81 | 1021.7 |
| 20260506215507 | 3 | 199 | 19.3 | 29.0 | 0.05 | 0.71 | 0.08 | 81 | 1021.7 |
| 20260506215006 | 3 | 241 | 11.3 | 27.4 | 0.00 | 0.66 | 0.05 | 81 | 1021.6 |
| 20260506214520 | 3 | 209 | 4.8 | 8.0 | 0.00 | 0.64 | 0.03 | 82 | 1021.3 |
| 20260506213508 | 3 | 193 | 3.2 | 12.9 | 0.00 | 0.64 | 0.03 | 81 | 1020.7 |
| 20260506212506 | 3 | 175 | 4.8 | 14.5 | 0.00 | 0.64 | 0.03 | 81 | 1020.8 |
| 20260506212002 | 3 | 166 | 8.0 | 14.5 | 0.00 | 0.64 | 0.03 | 81 | 1020.8 |
| 20260506211004 | 3 | 185 | 8.0 | 14.5 | 0.00 | 0.64 | 0.03 | 81 | 1020.6 |
| 20260506210507 | 3 | 175 | 8.0 | 14.5 | 0.00 | 0.64 | 0.03 | 81 | 1020.6 |
| 20260506210016 | 3 | 198 | 9.7 | 14.5 | 0.00 | 0.64 | 0.03 | 81 | 1020.7 |
| 20260506205008 | 3 | 195 | 6.4 | 14.5 | 0.00 | 0.64 | 0.03 | 80 | 1020.4 |
| 20260506204008 | 3 | 213 | 8.0 | 17.7 | 0.00 | 0.64 | 0.00 | 80 | 1020.5 |
| 20260506203508 | 3 | 237 | 9.7 | 17.7 | 0.00 | 0.64 | 0.00 | 80 | 1020.3 |
| 20260506203012 | 3 | 233 | 8.0 | 20.9 | 0.00 | 0.64 | 0.00 | 80 | 1020.3 |
| 20260506202511 | 3 | 228 | 11.3 | 20.9 | 0.00 | 0.64 | 0.00 | 80 | 1020.1 |
| 20260506202008 | 3 | 225 | 12.9 | 20.9 | 0.00 | 0.64 | 0.00 | 80 | 1020.2 |
| 20260506201509 | 3 | 235 | 8.0 | 20.9 | 0.00 | 0.64 | 0.00 | 80 | 1020.1 |
| 20260506201008 | 3 | 224 | 12.9 | 20.9 | 0.00 | 0.64 | 0.00 | 81 | 1019.9 |
| 20260506200509 | 3 | 233 | 11.3 | 20.9 | 0.00 | 0.64 | 0.00 | 82 | 1019.8 |
| 20260506200009 | 3 | 245 | 8.0 | 14.5 | 0.00 | 0.64 | 0.00 | 82 | 1019.7 |
| 20260506195506 | 3 | 211 | 3.2 | 14.5 | 0.00 | 0.64 | 0.00 | 82 | 1019.8 |
| 20260506195009 | 3 | 227 | 6.4 | 14.5 | 0.00 | 0.64 | 0.00 | 82 | 1019.8 |
| 20260506194008 | 3 | 195 | 4.8 | 16.1 | 0.00 | 0.64 | 0.00 | 82 | 1020.0 |
| 20260506193508 | 3 | 217 | 6.4 | 16.1 | 0.00 | 0.64 | 0.00 | 82 | 1020.0 |
| 20260506192508 | 3 | 226 | 14.5 | 30.6 | 0.00 | 0.64 | 0.00 | 81 | 1019.9 |
| 20260506192010 | 3 | 251 | 16.1 | 30.6 | 0.00 | 0.64 | 0.00 | 80 | 1020.1 |
| 20260506191512 | 3 | 200 | 14.5 | 20.9 | 0.00 | 0.61 | 0.00 | 79 | 1020.3 |
| 20260506191010 | 3 | 175 | 6.4 | 14.5 | 0.00 | 0.61 | 0.00 | 79 | 1020.0 |
| 20260506190023 | 3 | 249 | 6.4 | 12.9 | 0.00 | 0.61 | 0.00 | 80 | 1019.8 |
| 20260506185509 | 3 | 269 | 6.4 | 12.9 | 0.00 | 0.61 | 0.00 | 80 | 1019.8 |
| 20260506185007 | 3 | 262 | 4.8 | 12.9 | 0.00 | 0.61 | 0.00 | 80 | 1019.7 |
| 20260506184526 | 3 | 254 | 3.2 | 12.9 | 0.00 | 0.61 | 0.00 | 80 | 1019.6 |
| 20260506184007 | 3 | 265 | 4.8 | 11.3 | 0.00 | 0.61 | 0.00 | 80 | 1019.5 |
| 20260506183015 | 3 | 240 | 4.8 | 19.3 | 0.00 | 0.61 | 0.00 | 80 | 1019.4 |
| 20260506182506 | 3 | 258 | 11.3 | 19.3 | 0.00 | 0.61 | 0.00 | 80 | 1019.4 |
| 20260506182013 | 3 | 246 | 9.7 | 16.1 | 0.00 | 0.61 | 0.00 | 80 | 1019.3 |
| 20260506181008 | 3 | 245 | 6.4 | 22.5 | 0.00 | 0.61 | 0.00 | 80 | 1019.0 |
| 20260506180511 | 3 | 268 | 12.9 | 22.5 | 0.00 | 0.61 | 0.00 | 80 | 1019.1 |
| 20260506174518 | 3 | 263 | 11.3 | 20.9 | 0.00 | 0.61 | 0.00 | 80 | 1019.1 |
| 20260506174012 | 3 | 267 | 8.0 | 24.1 | 0.00 | 0.61 | 0.00 | 79 | 1019.1 |
| 20260506173508 | 3 | 255 | 14.5 | 24.1 | 0.00 | 0.61 | 0.00 | 79 | 1019.1 |
| 20260506173008 | 3 | 245 | 12.9 | 27.4 | 0.00 | 0.61 | 0.00 | 78 | 1019.2 |
| 20260506172504 | 4 | 247 | 16.1 | 27.4 | 0.00 | 0.61 | 0.00 | 78 | 1019.2 |
| 20260506172003 | 4 | 245 | 19.3 | 27.4 | 0.00 | 0.61 | 0.00 | 78 | 1019.2 |
| 20260506171507 | 4 | 251 | 16.1 | 25.7 | 0.00 | 0.61 | 0.00 | 78 | 1019.2 |
| 20260506171005 | 4 | 241 | 17.7 | 25.7 | 0.00 | 0.61 | 0.00 | 78 | 1019.2 |
| 20260506170504 | 4 | 223 | 12.9 | 25.7 | 0.00 | 0.61 | 0.00 | 79 | 1019.3 |
| 20260506170004 | 3 | 243 | 12.9 | 20.9 | 0.00 | 0.61 | 0.00 | 79 | 1019.2 |
| 20260506165504 | 3 | 238 | 9.7 | 24.1 | 0.00 | 0.61 | 0.00 | 79 | 1019.2 |
| 20260506165005 | 4 | 239 | 11.3 | 24.1 | 0.00 | 0.61 | 0.00 | 78 | 1019.3 |
| 20260506164506 | 4 | 250 | 12.9 | 25.7 | 0.00 | 0.61 | 0.00 | 78 | 1019.2 |
| 20260506164009 | 4 | 243 | 12.9 | 25.7 | 0.00 | 0.61 | 0.00 | 77 | 1019.2 |
| 20260506163006 | 4 | 229 | 12.9 | 22.5 | 0.00 | 0.61 | 0.00 | 77 | 1019.3 |
| 20260506161504 | 4 | 197 | 9.7 | 16.1 | 0.00 | 0.61 | 0.00 | 78 | 1019.3 |
| 20260506161004 | 4 | 200 | 8.0 | 14.5 | 0.00 | 0.61 | 0.00 | 79 | 1019.2 |
| 20260506160504 | 4 | 225 | 4.8 | 14.5 | 0.00 | 0.61 | 0.00 | 79 | 1019.3 |
| 20260506160015 | 4 | 171 | 8.0 | 14.5 | 0.00 | 0.61 | 0.00 | 78 | 1019.2 |
| 20260506155505 | 4 | 185 | 3.2 | 12.9 | 0.00 | 0.61 | 0.00 | 78 | 1019.3 |
| 20260506155008 | 4 | 200 | 6.4 | 17.7 | 0.00 | 0.61 | 0.00 | 78 | 1019.3 |
| 20260506154511 | 5 | 197 | 9.7 | 20.9 | 0.00 | 0.61 | 0.00 | 77 | 1019.3 |
| 20260506154007 | 5 | 157 | 9.7 | 20.9 | 0.00 | 0.61 | 0.00 | 76 | 1019.3 |
| 20260506153503 | 5 | 185 | 14.5 | 19.3 | 0.00 | 0.61 | 0.00 | 75 | 1019.3 |
| 20260506153009 | 5 | 202 | 11.3 | 20.9 | 0.00 | 0.61 | 0.00 | 74 | 1019.3 |
| 20260506152502 | 5 | 229 | 12.9 | 20.9 | 0.00 | 0.61 | 0.00 | 74 | 1019.3 |
| 20260506152006 | 5 | 256 | 4.8 | 14.5 | 0.00 | 0.61 | 0.00 | 74 | 1019.2 |
| 20260506151514 | 5 | 219 | 3.2 | 8.0 | 0.00 | 0.61 | 0.00 | 74 | 1019.2 |
| 20260506151003 | 5 | 185 | 0.0 | 6.4 | 0.00 | 0.61 | 0.00 | 74 | 1019.2 |
| 20260506150013 | 5 | 172 | 3.2 | 9.7 | 0.00 | 0.61 | 0.00 | 73 | 1019.4 |
| 20260506145508 | 5 | 196 | 3.2 | 9.7 | 0.00 | 0.61 | 0.00 | 73 | 1019.4 |
| 20260506145006 | 5 | 206 | 4.8 | 14.5 | 0.00 | 0.61 | 0.00 | 73 | 1019.3 |